Terug naar catalogus

SL-8 DEB

ActiefPO
NORAD 21091·DEBRIS·🇷🇺 Russia

Gelanceerd Feb 5, 1991 vanaf Plesetsk Cosmodrome

Loading…

Volgende Passages (komende 24 uur)

TLE

VersSource: Space-Track

Epoch: Sep 14, 2026, 04:17 UTC

1 21091U 91007C   26257.17895741  .00000179  00000-0  15490-3 0  9993
2 21091  82.9303 216.0512 0026456 202.4409 171.2157 13.81058488791413

Volg SL-8 DEB in realtime met AllMySat

Download on the App Store